Location: Tr�vern
(48.0333°N, 4.6000°W)
Time: 02:39:57
(UTC+00:00)

SL-08 R/B - Pass Details

Date: 14 July 2020
Orbit: 675 x 738 km, 98.4° (Epoch: 04 August)

Event Time Altitude Azimuth Distance (km) Brightness Sun altitude
Exits shadow 03:01:17 - 166° (SSE) 2,761 6.0 -12.0°
Reaches altitude 10° 03:02:45 10° 167° (SSE) 2,163 5.5 -11.8°
Maximum altitude 03:07:30 84° 255° (WSW) 723 3.3 -11.3°
Drops below altitude 10° 03:12:24 10° 345° (NNW) 2,221 6.4 -10.8°
Sets 03:14:42 0° 346° (NNW) 3,155 7.2 -10.6°
